Location: Cortos
(40.7190°N, 4.5893°W)
Time: 09:49:30
(UTC+00:00)

ATLAS CENTAUR R/B - Pass Details

Date: 05 July 2020
Orbit: 475 x 672 km, 64.7° (Epoch: 13 July)

Event Time Altitude Azimuth Distance (km) Brightness Sun altitude
Rises 23:30:59 0° 311° (NW) 2,539 5.5 -25.5°
Reaches altitude 10° 23:33:36 10° 292° (WNW) 1,646 4.1 -25.6°
Enters shadow 23:34:36 14° 278° (W) 1,397 3.6 -25.6°
